AZV2948 UUWW-HESH

Flight info

Callsign AZV2948
Flight time N/A
Altitude 35000
Route EMGAS3A EMGAS T828 EKTUT N72 UMSIS N166 TUDEK/N0484F350 UR114 TBN/N0483F360 UW88 PIXAP UT166 ERN UW88 EZS UW701 GAZ/N0485F350 UB36 TUSYR/N0486F360 B544 ALE/N0487F350 Q538 KTN R785 ZELAF M690 ELOXI/N0495F360 M690 SESMO M319 ULINA M690 NOVPA NOVPA2G
Aircraft B77W/H-SDE1E2E3FGHIJ2J3J4J5M1RWXY/LB1D1

Departure

Time 2026-04-29 13:05
Airport Vnukovo International Airport (UUWW)

Arrival

Time N/A
Airport Sharm El Sheikh International Airport (HESH)
Time Latitude Longitude Altitude Speed Heading
2026-04-29 12:28 55.60384 37.28032 705 ft 0 kts 136°
2026-04-29 12:52 55.60385 37.28030 705 ft 1 kts 136°
2026-04-29 12:52 55.60395 37.28012 705 ft 2 kts 134°
2026-04-29 12:52 55.60406 37.27993 705 ft 2 kts 135°
2026-04-29 12:52 55.60417 37.27975 705 ft 2 kts 138°
2026-04-29 12:53 55.60429 37.27961 705 ft 2 kts 164°
2026-04-29 12:53 55.60444 37.27958 705 ft 2 kts 186°
2026-04-29 12:53 55.60458 37.27964 705 ft 2 kts 207°
2026-04-29 12:53 55.60468 37.27976 705 ft 0 kts 224°
2026-04-29 12:54 55.60470 37.27981 705 ft 0 kts 226°
2026-04-29 12:56 55.60467 37.27975 705 ft 2 kts 225°
2026-04-29 12:57 55.60439 37.27927 705 ft 8 kts 223°
2026-04-29 12:57 55.60375 37.27871 705 ft 12 kts 193°
2026-04-29 12:57 55.60276 37.27843 705 ft 14 kts 184°
2026-04-29 12:57 55.60181 37.27859 705 ft 12 kts 162°
2026-04-29 12:58 55.60102 37.27856 705 ft 11 kts 210°
2026-04-29 12:58 55.60045 37.27772 705 ft 10 kts 216°
2026-04-29 12:58 55.59994 37.27699 705 ft 8 kts 226°
2026-04-29 12:58 55.59951 37.27599 705 ft 12 kts 233°
2026-04-29 12:59 55.59889 37.27472 705 ft 15 kts 226°
2026-04-29 12:59 55.59810 37.27325 705 ft 17 kts 226°
2026-04-29 12:59 55.59718 37.27155 705 ft 20 kts 225°
2026-04-29 12:59 55.59618 37.26969 705 ft 20 kts 227°
2026-04-29 13:00 55.59505 37.26877 705 ft 17 kts 191°
2026-04-29 13:00 55.59405 37.26772 705 ft 16 kts 221°
2026-04-29 13:00 55.59317 37.26633 705 ft 18 kts 222°
2026-04-29 13:00 55.59206 37.26510 704 ft 19 kts 204°
2026-04-29 13:01 55.59079 37.26413 704 ft 19 kts 203°
2026-04-29 13:01 55.58959 37.26322 704 ft 18 kts 203°
2026-04-29 13:01 55.58866 37.26249 704 ft 11 kts 210°
2026-04-29 13:01 55.58821 37.26142 704 ft 12 kts 248°
2026-04-29 13:02 55.58782 37.25986 704 ft 14 kts 239°
2026-04-29 13:02 55.58716 37.25884 704 ft 11 kts 206°
2026-04-29 13:02 55.58679 37.25838 704 ft 3 kts 252°
2026-04-29 13:02 55.58692 37.25815 704 ft 3 kts 348°
2026-04-29 13:03 55.58722 37.25818 704 ft 4 kts 13°
2026-04-29 13:03 55.58747 37.25832 704 ft 0 kts 21°
2026-04-29 13:04 55.58894 37.25940 704 ft 58 kts 23°
2026-04-29 13:04 55.59487 37.26397 705 ft 126 kts 22°
2026-04-29 13:04 55.60452 37.27158 795 ft 172 kts 23°
2026-04-29 13:05 55.61527 37.28066 1491 ft 171 kts 21°
2026-04-29 13:05 55.62603 37.28946 2077 ft 176 kts 16°
2026-04-29 13:05 55.63798 37.29680 2406 ft 193 kts 15°
2026-04-29 13:05 55.65097 37.30645 2784 ft 211 kts 23°
2026-04-29 13:06 55.66307 37.32227 3341 ft 224 kts 47°
2026-04-29 13:06 55.67002 37.34631 4244 ft 224 kts 74°
2026-04-29 13:06 55.67057 37.37396 4832 ft 237 kts 98°
2026-04-29 13:06 55.66404 37.40100 5449 ft 246 kts 123°
2026-04-29 13:07 55.65226 37.42305 6155 ft 249 kts 145°
2026-04-29 13:07 55.63713 37.43803 6661 ft 260 kts 154°
2026-04-29 13:07 55.62013 37.45225 7110 ft 273 kts 153°
2026-04-29 13:07 55.60318 37.46659 7779 ft 277 kts 154°
2026-04-29 13:08 55.58497 37.47915 8372 ft 284 kts 160°
2026-04-29 13:08 55.56632 37.49026 8914 ft 291 kts 161°
2026-04-29 13:08 55.54649 37.50060 9275 ft 301 kts 166°
2026-04-29 13:08 55.52654 37.50906 10213 ft 296 kts 166°
2026-04-29 13:09 55.50630 37.51751 10708 ft 307 kts 167°
2026-04-29 13:09 55.48491 37.52642 11095 ft 322 kts 167°
2026-04-29 13:09 55.46302 37.53553 11767 ft 327 kts 167°
2026-04-29 13:09 55.44094 37.54470 12501 ft 330 kts 166°
2026-04-29 13:10 55.41839 37.55407 13240 ft 334 kts 166°
2026-04-29 13:10 55.39582 37.56342 13978 ft 338 kts 166°
2026-04-29 13:10 55.37296 37.57289 14711 ft 342 kts 166°
2026-04-29 13:10 55.34968 37.58252 15042 ft 346 kts 166°
2026-04-29 13:11 55.32586 37.59224 15247 ft 359 kts 168°
2026-04-29 13:11 55.30098 37.60005 15650 ft 375 kts 170°
2026-04-29 13:11 55.27479 37.60764 16082 ft 389 kts 170°
2026-04-29 13:11 55.24751 37.61551 16504 ft 404 kts 170°
2026-04-29 13:12 55.21944 37.62360 16976 ft 417 kts 170°
2026-04-29 13:12 55.19049 37.63192 17579 ft 427 kts 169°
2026-04-29 13:12 55.16138 37.64028 18350 ft 432 kts 169°
2026-04-29 13:12 55.13134 37.64889 19104 ft 438 kts 169°
2026-04-29 13:13 55.10131 37.65749 19829 ft 444 kts 170°
2026-04-29 13:13 55.07084 37.66620 20575 ft 449 kts 170°
2026-04-29 13:13 55.04003 37.67500 21326 ft 453 kts 170°
2026-04-29 13:13 55.00894 37.68385 22053 ft 457 kts 170°
2026-04-29 13:14 54.97751 37.69280 22758 ft 462 kts 170°
2026-04-29 13:14 54.94610 37.70173 23414 ft 467 kts 170°
2026-04-29 13:14 54.91411 37.71080 24058 ft 472 kts 170°
2026-04-29 13:14 54.88141 37.72006 24672 ft 477 kts 170°
2026-04-29 13:15 54.84848 37.72937 25269 ft 482 kts 170°
2026-04-29 13:15 54.81581 37.73859 25874 ft 485 kts 170°
2026-04-29 13:15 54.78213 37.74808 26489 ft 489 kts 170°
2026-04-29 13:15 54.74853 37.75753 27053 ft 493 kts 170°
2026-04-29 13:16 54.71403 37.76722 27588 ft 498 kts 170°
2026-04-29 13:16 54.67928 37.77696 28159 ft 501 kts 170°
2026-04-29 13:16 54.64480 37.78660 28691 ft 505 kts 170°
2026-04-29 13:16 54.60946 37.79647 29247 ft 509 kts 170°
2026-04-29 13:17 54.57458 37.80619 29916 ft 509 kts 169°
2026-04-29 13:17 54.53973 37.81588 30722 ft 506 kts 170°
2026-04-29 13:17 54.50550 37.82538 31439 ft 502 kts 170°
2026-04-29 13:17 54.47121 37.83752 31835 ft 499 kts 163°
2026-04-29 13:18 54.43885 37.85769 32174 ft 497 kts 154°
2026-04-29 13:18 54.40832 37.88452 32519 ft 495 kts 150°